Regional Weather Roundup
Issued by NWS

Home | Current Version | Previous Version | Text Only | Print | Product List | Glossary Off
Versions: 1 2 3 4 5 6 7 8 9 10 11 12 13 14 15 16 17 18 19 20 21 22 23 24 25 26 27 28 29 30 31 32 33 34 35 36 37 38 39 40 41 42 43 44 45 46 47 48 49 50

000
ASUS45 KBOI 190010
RWRID

IDAHO REGIONAL WEATHER ROUNDUP
NATIONAL WEATHER SERVICE BOISE ID
500 PM MST SAT NOV 18 2017

NOTE: "FAIR" INDICATES FEW OR NO CLOUDS BELOW 12000 FEET
WITH NO SIGNIFICANT WEATHER AND/OR OBSTRUCTIONS TO VISIBILITY

IDZ012-014-190100-
SOUTHWEST IDAHO


CITY           SKY/WX    TMP DP  RH WIND       PRES   REMARKS
BOISE          PTCLDY    43  22  43 SE8       30.31S
CALDWELL       PTCLDY    44  24  45 E12       30.31S
MOUNTAIN HOME  PTCLDY    40  27  60 E10       30.31F WCI  33
$$

IDZ016-017-190100-
SOUTHCENTRAL IDAHO


CITY           SKY/WX    TMP DP  RH WIND       PRES   REMARKS
BURLEY         PTCLDY    38  22  52 E7        30.33S WCI  33
JEROME         PTCLDY    36  24  62 NE9       30.33F WCI  29
TWIN FALLS     PTCLDY    37  25  61 E3        30.32F
$$

IDZ019>023-190100-
SOUTHEAST IDAHO


CITY           SKY/WX    TMP DP  RH WIND       PRES   REMARKS
IDAHO FALLS    MOCLDY    35  21  56 S3        30.37S
POCATELLO      CLEAR     35  23  61 S10       30.36F WCI  27
REXBURG        CLOUDY    33  21  61 SW3       30.37S
$$

IDZ006-010-011-018-031-032-190100-
CENTRAL IDAHO MOUNTAINS


CITY           SKY/WX    TMP DP  RH WIND       PRES   REMARKS
MCCALL         CLEAR     33  20  58 CALM      30.24F
HAILEY         CLEAR     30  19  64 SE6       30.34F WCI  24
STANLEY          N/A     19  10  68 CALM      30.27S
SALMON         CLOUDY    34  17  50 SW3       30.28S
CHALLIS        CLEAR     28  17  63 NW3       30.28S
$$

IDZ002-004-006-007-026-190100-
NORTHERN IDAHO


CITY           SKY/WX    TMP DP  RH WIND       PRES   REMARKS
LEWISTON       PTCLDY    47  31  53 E9        30.21F
LOWELL           N/A     38  36  92 VRB3      30.27R
COEUR D`ALENE  PTCLDY    39  30  70 S3        30.20F
MULLAN PASS    MOCLDY    23  20  88 MISG      30.13F
$$



USA.gov is the U.S. government's official web portal to all federal, state and local government web resources and services.